Bookmark and Share
Track history (hours):
 

Omskiy-141

Last reported at 2014-Apr-23 17:16 UTC. Time now 2014-Apr-24 02:11 UTC.
Position N 55°56' E 014°19'.

Length 108 m; draft 3.3 m.

Type: Cargo ship. MMSI: 273310600.

NotesDate/timePositionNaut miles runAvg speedWind from/ knotsBaromVisibWave heightAir tempDewpointWater temp
2014-Apr-23 17:16N 55°56' E 014°19'15 3.8
2014-Apr-23 13:13N 55°52' E 014°46'2 2.3
2014-Apr-23 12:31N 55°51' E 014°48'5 4.3
2014-Apr-23 11:27N 55°49' E 014°55'10 8.4
2014-Apr-23 10:16N 55°45' E 015°12'9 8.0
2014-Apr-23 09:07N 55°42' E 015°27'53 7.7
2014-Apr-23 02:16N 55°21' E 016°52'14 8.1
2014-Apr-23 00:33N 55°16' E 017°16'8 8.3
2014-Apr-22 23:33N 55°13' E 017°29'11 8.5
2014-Apr-22 22:14N 55°09' E 017°48'6 8.7
2014-Apr-22 21:33N 55°07' E 017°57'8 8.5
2014-Apr-22 20:33N 55°04' E 018°11'8 8.4
2014-Apr-22 19:33N 55°02' E 018°25'8 8.3
2014-Apr-22 18:34N 54°59' E 018°39'8 8.3
2014-Apr-22 17:33N 54°56' E 018°53'9 8.6
2014-Apr-22 16:33N 54°53' E 019°07'9 8.5
2014-Apr-22 15:33N 54°50' E 019°21'8 8.4
2014-Apr-22 14:33N 54°46' E 019°33'9 8.6
2014-Apr-22 13:34N 54°41' E 019°46'8 7.7
2014-Apr-22 12:33N 54°38' E 019°58'8 7.7
2014-Apr-22 11:31N 54°41' E 020°11'8 7.9
2014-Apr-22 10:33N 54°41' E 020°24'  
2014-Apr-18 14:10N 54°39' E 019°50'1 0.2
2014-Apr-18 06:25N 54°40' E 019°48'0 0.0
2014-Apr-18 05:22N 54°40' E 019°48'0 0.0
2014-Apr-18 04:31N 54°40' E 019°48'3 2.8
2014-Apr-18 03:33N 54°41' E 019°44'8 8.1
2014-Apr-18 02:33N 54°41' E 019°30'8 8.3
2014-Apr-18 01:33N 54°42' E 019°16'8 8.3
2014-Apr-18 00:33N 54°41' E 019°02'8 8.3
2014-Apr-17 23:33N 54°35' E 018°53'9 8.8
2014-Apr-17 22:33N 54°28' E 018°42'6 5.7
2014-Apr-17 21:33N 54°22' E 018°40'1 0.6
2014-Apr-17 20:32N 54°22' E 018°40'0 0.0
2014-Apr-17 19:32N 54°22' E 018°40'0 0.0
2014-Apr-17 18:32N 54°22' E 018°40'0 0.0
2014-Apr-17 17:32N 54°22' E 018°40'0 0.0
2014-Apr-17 16:32N 54°22' E 018°40'0 0.0
2014-Apr-17 15:32N 54°22' E 018°40'0 0.0
2014-Apr-17 14:32N 54°22' E 018°40'0 0.0
2014-Apr-17 13:32N 54°22' E 018°40'0 0.0
2014-Apr-17 12:32N 54°22' E 018°40'0 0.0
2014-Apr-17 11:32N 54°22' E 018°40'0 0.0
2014-Apr-17 10:29N 54°22' E 018°40'0 0.0
2014-Apr-17 09:32N 54°22' E 018°40'0 0.0
2014-Apr-17 08:32N 54°22' E 018°40'0 0.0
2014-Apr-17 07:32N 54°22' E 018°40'0 0.0
2014-Apr-17 06:32N 54°22' E 018°40'0 0.0
2014-Apr-17 05:33N 54°22' E 018°40'0 0.0
2014-Apr-17 04:33N 54°22' E 018°40'0 0.0
2014-Apr-17 03:32N 54°22' E 018°40'0 0.0
2014-Apr-17 02:32N 54°22' E 018°40'0 0.0
2014-Apr-17 01:32N 54°22' E 018°40'0 0.0
2014-Apr-17 00:32N 54°22' E 018°40'0 0.0
2014-Apr-16 23:32N 54°22' E 018°40'0 0.0
2014-Apr-16 22:32N 54°22' E 018°40'0 0.0
2014-Apr-16 21:32N 54°22' E 018°40'0 0.0
2014-Apr-16 20:32N 54°22' E 018°40'0 0.0
2014-Apr-16 19:32N 54°22' E 018°40'0 0.0
2014-Apr-16 18:32N 54°22' E 018°40'0 0.0
2014-Apr-16 17:32N 54°22' E 018°40'0 0.0
2014-Apr-16 16:33N 54°22' E 018°40'0 0.0
2014-Apr-16 15:33N 54°22' E 018°40'0 0.0
2014-Apr-16 14:32N 54°22' E 018°40'0 0.0
2014-Apr-16 13:29N 54°22' E 018°40'0 0.0
2014-Apr-16 12:32N 54°22' E 018°40'0 0.0
2014-Apr-16 11:33N 54°22' E 018°40'0 0.0
2014-Apr-16 10:32N 54°22' E 018°40'0 0.0
2014-Apr-16 09:32N 54°22' E 018°40'0 0.0
2014-Apr-16 08:29N 54°22' E 018°40'0 0.0
2014-Apr-16 07:29N 54°22' E 018°40'0 0.0
2014-Apr-16 06:32N 54°22' E 018°40'0 0.2
2014-Apr-16 05:34N 54°22' E 018°40'5 5.2
2014-Apr-16 04:33N 54°27' E 018°40'3 3.3
2014-Apr-16 03:34N 54°29' E 018°44'5 4.5
2014-Apr-16 02:34N 54°33' E 018°49'7 7.0
2014-Apr-16 01:34N 54°39' E 018°55'7 6.9
2014-Apr-16 00:33N 54°42' E 019°06'7 7.1
2014-Apr-15 23:33N 54°42' E 019°18'7 7.1
2014-Apr-15 22:33N 54°42' E 019°30'7 7.1
2014-Apr-15 21:32N 54°41' E 019°43'8 6.1
2014-Apr-15 20:15N 54°38' E 019°55'11 2.2
2014-Apr-15 15:21N 54°41' E 020°13'  

Dump ship's entire track history

sailing weather and tide predictions

Omskiy-141 — UGZK — position and weather